User: anonymous   Login
Location: Cicognara
(44.9500°N, 10.4667°E)
Time: 21:30:22
(UTC+00:00)
Language:

Cosmos 1816 Rocket - Orbit

View from above orbital plane
View from above orbital plane
View from above satellite
View from above satellite

Ground track
Ground track

The orbit data is extracted from the following two-line orbital elements,

1 17360U 87009B   21266.86927192  .00000034  00000-0  19214-4 0  9990
2 17360  82.9230 185.3277 0033013 148.1602 276.7713 13.76759817740602
Epoch (UTC): 23 September 2021 20:51:45
Eccentricity: 0.0033013
inclination: 82.9230°
perigee height: 951 km
apogee height: 999 km
right ascension of ascending node: 185.3277°
argument of perigee: 148.1602°
revolutions per day: 13.76759817
mean anomaly at epoch: 276.7713°
orbit number at epoch: 74060

The dashed part of the orbit path shows where the satellite is in the earth's shadow,  

DLR